Weather History for LKCV - April, 2014

Change the Weather History Date:

Saturday, April 26, 2014

  Actual Average Record
Temperature  
Mean Temperature 58 °F -  
Max Temperature 72 °F - - ()
Min Temperature 45 °F - - ()
Degree Days  
Heating Degree Days 6    
Growing Degree Days 8 (Base 50)    
Moisture  
Dew Point 53 °F    
Average Humidity 86    
Maximum Humidity 100    
Minimum Humidity 42    
Precipitation  
Precipitation 0.79 in - - ()
Sea Level Pressure  
Sea Level Pressure 29.87 in    
Wind  
Wind Speed 3 mph ()    
Max Wind Speed 11 mph    
Max Gust Speed -    
Visibility 5.3 miles    
Events Fog , Rain    
T = Trace of Precipitation, MM = Missing Value Source: Averaged Metar Reports

Daily Weather History Graph

Daily Weather History Graph

Search for Another Location

Airport or City:

Trip Planner

Search our weather history database for the weather conditions in past years. The results will help you decide how hot, cold, wet, or windy it might be!

Date:

Astronomy

Apr. 26, 2014 Rise Set
Actual Time 5:44 AM CEST 8:09 PM CEST
Civil Twilight 5:08 AM CEST 8:44 PM CEST
Nautical Twilight 4:24 AM CEST 9:30 PM CEST
Astronomical Twilight 3:32 AM CEST 10:22 PM CEST
Moon 4:17 AM CEST (4/26) 5:01 PM CEST (4/26)
Length of Visible Light 15h 35m
Length of Day
14h 24m
Waning Crescent, 10% of the Moon is Illuminated
Apr 26
Waning Crescent
Apr 29
New
May 7
First Quarter
May 14
Full
May 21
Last Quarter

Hourly Weather History & Observations

Time (CEST) Temp. Windchill Dew Point Humidity Pressure Visibility Wind Dir Wind Speed Gust Speed Precip Events Conditions
12:00 AM 51 °F - 51 °F 100% 29.94 in 1 mi NW 2.2 mph - -   Mist
12:00 AM 51.8 °F - 50.0 °F 94% 29.92 in 0.6 mi NW 1.2 mph - N/A   Mostly Cloudy
1:00 AM 52 °F - 52 °F 99% 29.93 in 5 mi South 4.5 mph - -   Mist
1:00 AM 51.8 °F - 51.8 °F 100% 29.92 in 5.0 mi South 4.6 mph - N/A   Unknown
2:00 AM 51 °F - 51 °F 100% 29.92 in 6 mi NNE 2.2 mph - -   Partly Cloudy
2:00 AM 51.8 °F - 51.8 °F 100% 29.89 in - NNE 3.5 mph - N/A   Clear
2:25 AM 50.0 °F - 50.0 °F 100% 29.89 in 1.9 mi NE 3.5 mph - N/A   Mist
2:27 AM 50.0 °F - 50.0 °F 100% 29.89 in 0.2 mi Variable 2.3 mph - N/A Fog Fog
3:00 AM 51 °F - 50 °F 97% 29.91 in 1 mi SW 2.2 mph - - Fog Shallow Fog
3:00 AM 50.0 °F - 50.0 °F 100% 29.89 in 1.2 mi Calm Calm - N/A Fog Fog
4:00 AM 47 °F - 46 °F 96% 29.92 in 1 mi SW 4.5 mph - -   Mist
4:00 AM 46.4 °F 45.2 °F 46.4 °F 100% 29.89 in 0.6 mi SW 3.5 mph - N/A   Mist
5:00 AM 46 °F - 46 °F 100% 29.92 in 1 mi SSW 2.2 mph - -   Mist
5:00 AM 46.4 °F - 46.4 °F 100% 29.89 in 0.6 mi SSW 2.3 mph - N/A   Mist
5:47 AM 46.4 °F - 46.4 °F 100% 29.89 in 0.2 mi ESE 2.3 mph - N/A Fog Fog
6:00 AM 46 °F - 46 °F 99% 29.93 in 0 mi East 2.2 mph - - Fog Partial Fog
6:00 AM 46.4 °F - 46.4 °F 100% 29.89 in 0.2 mi Calm Calm - N/A Fog Fog
6:11 AM 46.4 °F - 46.4 °F 100% 29.89 in 1.9 mi Calm Calm - N/A   Mist
6:20 AM 48.2 °F - 46.4 °F 93% 29.92 in 5.0 mi Calm Calm - N/A   Unknown
7:00 AM 49 °F - 48 °F 97% 29.94 in 9 mi South 2.2 mph - - Fog Light Fog
7:00 AM 48.2 °F - 48.2 °F 100% 29.92 in - Calm Calm - N/A   Clear
8:00 AM 53 °F - 53 °F 99% 29.93 in 6 mi SSE 2.2 mph - -   Partly Cloudy
8:00 AM 53.6 °F - 51.8 °F 94% 29.92 in - Variable 2.3 mph - N/A   Clear
9:00 AM 57 °F - 56 °F 96% 29.91 in 6 mi East 2.2 mph - -   Partly Cloudy
9:00 AM 57.2 °F - 55.4 °F 94% 29.89 in - Variable 2.3 mph - N/A   Clear
10:00 AM 61 °F - 57 °F 83% 29.90 in 6 mi Calm Calm - -   Partly Cloudy
10:00 AM 60.8 °F - 57.2 °F 88% 29.89 in 6.2 mi Calm Calm - N/A   Mostly Cloudy
11:00 AM 63 °F - 56 °F 72% 29.89 in 9 mi ENE 2.2 mph - -   Mostly Cloudy
11:00 AM 62.6 °F - 55.4 °F 77% 29.89 in 6.2 mi Variable 2.3 mph - N/A   Mostly Cloudy
12:00 PM 65 °F - 56 °F 64% 29.88 in 9 mi SW 2.2 mph - -   Partly Cloudy
12:00 PM 64.4 °F - 55.4 °F 73% 29.89 in 6.2 mi Variable 1.2 mph - N/A   Scattered Clouds
1:00 PM 67 °F - 54 °F 52% 29.86 in 9 mi West 2.2 mph - -   Partly Cloudy
1:00 PM 66.2 °F - 53.6 °F 64% 29.86 in 6.2 mi Variable 1.2 mph - N/A   Scattered Clouds
2:00 PM 69 °F - 54 °F 50% 29.84 in 9 mi SE 2.2 mph - -   Scattered Clouds
2:00 PM 68.0 °F - 53.6 °F 60% 29.86 in 6.2 mi Variable 2.3 mph - N/A   Scattered Clouds
3:00 PM 70 °F - 52 °F 42% 29.82 in 9 mi East 2.2 mph - -   Scattered Clouds
3:00 PM 69.8 °F - 53.6 °F 56% 29.83 in 6.2 mi Variable 1.2 mph - N/A   Scattered Clouds
4:00 PM 70 °F - 52 °F 43% 29.80 in 9 mi East 4.5 mph - -   Partly Cloudy
4:00 PM 69.8 °F - 51.8 °F 53% 29.80 in 6.2 mi ESE 3.5 mph - N/A   Scattered Clouds
5:00 PM 62 °F - 57 °F 79% 29.81 in 9 mi NE 11.2 mph - - Rain Heavy Rain Showers
5:00 PM 62.6 °F - 57.2 °F 82% 29.80 in 6.2 mi NE 10.4 mph - N/A Rain Light Rain Showers
6:00 PM 58 °F - 56 °F 93% 29.82 in 6 mi NNE 8.9 mph - - Rain Heavy Rain Showers
6:00 PM 59.0 °F - 57.2 °F 94% 29.83 in 6.2 mi NNE 8.1 mph - N/A Rain Light Rain Showers
7:00 PM 62 °F - 58 °F 81% 29.81 in 9 mi ESE 4.5 mph - - Rain Light Rain Showers
7:00 PM 60.8 °F - 57.2 °F 88% 29.80 in 6.2 mi East 5.8 mph - N/A   Mostly Cloudy
8:00 PM 60 °F - 58 °F 90% 29.81 in 9 mi East 2.2 mph - -   Partly Cloudy
8:00 PM 59.0 °F - 57.2 °F 94% 29.80 in 6.2 mi Variable 2.3 mph - N/A   Mostly Cloudy
9:00 PM 58 °F - 55 °F 88% 29.81 in 9 mi ESE 4.5 mph - -   Partly Cloudy
9:00 PM 59.0 °F - 55.4 °F 88% 29.80 in - ESE 4.6 mph - N/A   Clear
10:00 PM 58 °F - 55 °F 88% 29.81 in 9 mi SE 4.5 mph - -   Partly Cloudy
10:00 PM 57.2 °F - 55.4 °F 94% 29.80 in - SE 3.5 mph - N/A   Clear
11:00 PM 57 °F - 54 °F 87% 29.80 in 9 mi SE 6.7 mph - -   Clear
11:00 PM 57.2 °F - 53.6 °F 88% 29.80 in - SE 5.8 mph - N/A   Clear